This is the latest recevied weather packets stored in our database for station/object DN9EM-2. If no packets are shown the sender has not sent any weather packets the latest 10 day(s).
| Time | Temp. | Humidity | Pressure | Rain* | Wind** | Luminosity | Snow |
|---|---|---|---|---|---|---|---|
| 1777821060 | 24.44° C | 53% | 1009.6 hPa | 0 mm | - | - | - |
| 1777820458 | 25° C | 53% | 1009.8 hPa | 0 mm | - | - | - |
| 1777819855 | 25.56° C | 52% | 1010 hPa | 0 mm | - | - | - |
| 1777819253 | 25.56° C | 52% | 1010 hPa | 0 mm | - | - | - |
| 1777818650 | 25.56° C | 51% | 1010.3 hPa | 0 mm | - | - | - |
| 1777818047 | 25.56° C | 51% | 1010.4 hPa | 0 mm | - | - | - |
| 1777817445 | 25° C | 52% | 1010.5 hPa | 0 mm | - | - | - |
| 1777816842 | 24.44° C | 53% | 1010.5 hPa | 0 mm | - | - | - |
| 1777816240 | 25° C | 55% | 1010.8 hPa | 0 mm | - | - | - |
| 1777815637 | 24.44° C | 55% | 1010.9 hPa | 0 mm | - | - | - |
| 1777815034 | 24.44° C | 55% | 1011.1 hPa | 0 mm | - | - | - |
| 1777814432 | 24.44° C | 56% | 1011.2 hPa | 0 mm | - | - | - |
| 1777813829 | 24.44° C | 56% | 1011.3 hPa | 0 mm | - | - | - |
| 1777813227 | 23.89° C | 56% | 1011.4 hPa | 0 mm | - | - | - |
| 1777812624 | 23.89° C | 56% | 1011.5 hPa | 0 mm | - | - | - |
| 1777812021 | 23.33° C | 59% | 1011.7 hPa | 0 mm | - | - | - |
| 1777811419 | 23.89° C | 58% | 1011.9 hPa | 0 mm | - | - | - |
| 1777810816 | 23.33° C | 58% | 1012 hPa | 0 mm | - | - | - |
| 1777810273 | 23.33° C | 60% | 1012.1 hPa | 0 mm | - | - | - |
| 1777809671 | 23.33° C | 59% | 1012.3 hPa | 0 mm | - | - | - |
| 1777809068 | 23.33° C | 60% | 1012.2 hPa | 0 mm | - | - | - |
| 1777808466 | 23.33° C | 61% | 1012.5 hPa | 0 mm | - | - | - |
| 1777807863 | 22.22° C | 63% | 1012.5 hPa | 0 mm | - | - | - |
| 1777807260 | 22.22° C | 62% | 1012.6 hPa | 0 mm | - | - | - |
| 1777806657 | 22.78° C | 61% | 1012.8 hPa | 0 mm | - | - | - |
* Rain latest hour (hover to see other rain measurements)
** Current wind speed in m/s (hover to see current wind gust speed)